Weather History for Tuscaloosa, AL

Change the Weather History Date:

Thursday, August 29, 2013

  Actual Average Record
Temperature  
Mean Temperature 82 °F 80 °F  
Max Temperature 93 °F 91 °F 107 °F (2000)
Min Temperature 70 °F 69 °F 56 °F (1986)
Cooling Degree Days 15    
Growing Degree Days 30 (Base 50)    
Moisture  
Dew Point 70 °F    
Average Humidity 72    
Maximum Humidity 97    
Minimum Humidity 47    
Precipitation  
Precipitation 0.00 in 0.11 in 1.83 in (1974)
Month to date precipitation 4.02 3.10  
Year to date precipitation 38.82 35.67  
Sea Level Pressure  
Sea Level Pressure 30.03 in    
Wind  
Wind Speed 2 mph (NW)    
Max Wind Speed 10 mph    
Max Gust Speed 14 mph    
Visibility 6 miles    
Events      
T = Trace of Precipitation, MM = Missing Value Source: NWS Daily Summary

Daily Weather History Graph

Daily Weather History Graph

Search for Another Location

Airport:

Trip Planner

Search our weather history database for the weather conditions in past years. The results will help you decide how hot, cold, wet, or windy it might be!

Date:

Astronomy

Aug. 29, 2013 Rise Set
Actual Time 6:22 AM CDT 7:19 PM CDT
Civil Twilight 5:57 AM CDT 7:44 PM CDT
Nautical Twilight 5:27 AM CDT 8:14 PM CDT
Astronomical Twilight 4:56 AM CDT 8:45 PM CDT
Moon 12:23 AM CDT (8/29) 2:38 PM CDT (8/29)
Length of Visible Light 13h 46m
Length of Day
12h 56m
Last Quarter, 38% of the Moon is Illuminated
Aug 29
Last Quarter
Sep 5
New
Sep 12
First Quarter
Sep 19
Full
Sep 26
Last Quarter

Hourly Weather History & Observations

Time (CDT) Temp. Heat Index Dew Point Humidity Pressure Visibility Wind Dir Wind Speed Gust Speed Precip Events Conditions
12:53 AM 73.0 °F - 71.1 °F 93% 30.04 in 5.0 mi Calm Calm - N/A   Clear
1:53 AM 71.1 °F - 70.0 °F 96% 30.03 in 4.0 mi Calm Calm - N/A   Clear
2:53 AM 72.0 °F - 70.0 °F 93% 30.03 in 5.0 mi Calm Calm - N/A   Clear
3:53 AM 70.0 °F - 68.0 °F 93% 30.03 in 3.0 mi Calm Calm - N/A   Clear
4:53 AM 71.1 °F - 69.1 °F 93% 30.04 in 4.0 mi Calm Calm - N/A   Clear
5:49 AM 69.8 °F - 68.0 °F 94% 30.05 in 1.8 mi Calm Calm - N/A   Clear
5:53 AM 70.0 °F - 68.0 °F 93% 30.05 in 1.8 mi Calm Calm - N/A   Clear
6:02 AM 69.8 °F - 69.8 °F 100% 30.06 in 3.0 mi Calm Calm - N/A   Clear
6:29 AM 69.8 °F - 68.0 °F 94% 30.07 in 1.8 mi Calm Calm - N/A   Clear
6:50 AM 71.6 °F - 69.8 °F 94% 30.07 in 3.0 mi Calm Calm - N/A   Clear
6:51 AM 71.1 °F - 69.1 °F 93% 30.06 in 3.0 mi Calm Calm - N/A   Clear
7:53 AM 73.9 °F - 71.1 °F 91% 30.08 in 5.0 mi Calm Calm - N/A   Clear
8:53 AM 77.0 °F - 70.0 °F 79% 30.08 in 6.0 mi Calm Calm - N/A   Haze
9:53 AM 82.0 °F 85.9 °F 70.0 °F 67% 30.08 in 7.0 mi Calm Calm - N/A   Clear
10:53 AM 86.0 °F 92.2 °F 72.0 °F 63% 30.08 in 8.0 mi Variable 4.6 mph - N/A   Clear
11:53 AM 88.0 °F 94.7 °F 72.0 °F 59% 30.06 in 8.0 mi Variable 5.8 mph - N/A   Clear
12:53 PM 89.1 °F 94.1 °F 70.0 °F 53% 30.04 in 9.0 mi NNW 5.8 mph - N/A   Scattered Clouds
1:53 PM 91.0 °F 97.6 °F 71.1 °F 52% 30.02 in 9.0 mi Variable 5.8 mph - N/A   Scattered Clouds
2:53 PM 91.9 °F 97.4 °F 70.0 °F 48% 30.00 in 9.0 mi WNW 6.9 mph - N/A   Partly Cloudy
3:53 PM 91.0 °F 95.6 °F 69.1 °F 48% 29.99 in 9.0 mi NNW 6.9 mph - N/A   Partly Cloudy
4:53 PM 91.9 °F 95.9 °F 68.0 °F 45% 29.99 in 9.0 mi NW 6.9 mph - N/A   Clear
5:53 PM 90.0 °F 94.5 °F 69.1 °F 50% 29.98 in 9.0 mi WNW 5.8 mph - N/A   Clear
6:53 PM 87.1 °F 93.6 °F 72.0 °F 61% 29.98 in 9.0 mi Calm Calm - N/A   Clear
7:53 PM 81.0 °F 86.2 °F 73.9 °F 79% 29.99 in 9.0 mi Calm Calm - N/A   Clear
8:53 PM 79.0 °F - 73.9 °F 84% 29.99 in 8.0 mi Calm Calm - N/A   Clear
9:53 PM 77.0 °F - 73.9 °F 90% 29.99 in 7.0 mi Calm Calm - N/A   Clear
10:53 PM 75.9 °F - 73.0 °F 91% 29.99 in 6.0 mi Calm Calm - N/A   Clear
11:53 PM 73.9 °F - 72.0 °F 93% 29.99 in 4.0 mi Calm Calm - N/A   Clear